Regional Weather Roundup
Issued by NWS

Home | Current Version | Previous Version | Graphics & Text | Print | Product List | Glossary Off
Versions: 1 2 3 4 5 6 7 8 9 10 11 12 13 14 15 16 17 18 19 20 21 22 23 24 25 26 27 28 29 30 31 32 33 34 35 36 37 38 39 40 41 42 43 44 45 46 47 48 49 50

000
ASUS43 KFSD 281610
RWRSD

WEATHER ROUNDUP FOR SOUTH DAKOTA
NATIONAL WEATHER SERVICE SIOUX FALLS SD
1100 AM CDT THU AUG 28 2014

NOTE: "FAIR" INDICATES FEW OR NO CLOUDS BELOW 12,000 FEET WITH NO
SIGNIFICANT WEATHER AND/OR OBSTRUCTIONS TO VISIBILITY.


SDZ001>005-009-010-012>017-281700-
NORTHWEST AND NORTH CENTRAL SOUTH DAKOTA

CITY           SKY/WX    TMP DP  RH WIND       PRES   REMARKS
BUFFALO          N/A     71  60  68 S3        29.92S
FAITH            N/A     68  64  87 NW3       29.97S
MOBRIDGE       LGT RAIN  67  67 100 SE6       29.92S
$$

SDZ012>016-024>037-041>051-057-063-072>074-281700-
SOUTHWEST AND SOUTH CENTRAL SOUTH DAKOTA

CITY           SKY/WX    TMP DP  RH WIND       PRES   REMARKS
RAPID CTY ARPT CLOUDY    68  59  73 CALM      30.01S
PIERRE         CLOUDY    69  68  96 NE6       29.91S
CUSTER         CLOUDY    63  54  72 CALM      30.12R
ELLSWORTH AFB  CLOUDY    67  59  74 VRB1      30.01S
PHILIP         PTSUNNY   73  65  75 N7        29.95F
PINE RIDGE     CLOUDY    68  63  84 N10       30.01R
WINNER         CLOUDY    72  66  81 CALM      29.91S
$$

SDZ004>011-016>023-039-040-281700-
NORTHEAST SOUTH DAKOTA

CITY           SKY/WX    TMP DP  RH WIND       PRES   REMARKS
ABERDEEN       CLOUDY    68  66  93 E7        29.94F
WATERTOWN      LGT RAIN  66  64  93 SE6       29.96F
SISSETON         N/A     66  63  90 SE8       29.97S
$$

SDZ017-020-022-023-036>040-048>070-281700-
SOUTHEAST SOUTH DAKOTA

CITY           SKY/WX    TMP DP  RH WIND       PRES   REMARKS
SIOUX FALLS    LGT RAIN  70  66  87 SE13      29.95S
HURON          LGT RAIN  68  67  96 SE8       29.91S
CHAMBERLAIN    CLOUDY    69  67  96 SE10      29.90S
MITCHELL       CLOUDY    71  69  93 SE12      29.92S
YANKTON        CLOUDY    70  66  88 SE12      29.92F
$$

ABBREVIATIONS USED IN REMARKS
   TC - TEMPERATURE IN CELSIUS
  WCI - WIND CHILL INDEX
   HX - HEAT INDEX
  VSB - VISIBILITY




USA.gov is the U.S. government's official web portal to all federal, state and local government web resources and services.